Theta_e
337 337 337 338 339 340 340 339 338 338 339 339 339 339 342 342 341 341 340 339 340 341 340 340 341 341 340 340 340 340 339 339 339 339 339 338 338 337 336 336 337 338 338 338 338 337 336 336 337 337 338 337 337 335 335 335 335 335 335 335 335 334 334 333 333 333 332 332 331 331 332 332 333 333 333 333 334 334 333 333 333 333 331 330 330
335 335 334 334 335 336 337 338 337 337 338 338 339 339 340 340 340 340 339 339 338 338 339 340 340 340 340 340 340 340 340 339 338 338 338 338 337 337 336 337 337 338 339 339 338 338 337 336 336 337 337 337 337 336 335 335 335 336 336 335 335 335 334 334 333 332 332 331 330 331 332 332 331 332 333 333 332 333 333 333 333 333 332 331 330
333 333 333 332 333 333 334 335 335 334 335 336 336 337 338 339 339 339 339 339 338 338 338 338 339 339 339 339 340 341 341 340 339 338 337 337 337 336 337 337 337 338 338 338 338 338 338 338 338 338 338 337 337 336 335 335 335 336 336 335 334 334 334 334 334 333 332 332 331 332 334 334 333 331 331 332 332 333 333 333 333 332 332 331 331
333 331 331 331 331 332 332 332 332 333 333 333 334 334 336 337 338 338 339 338 338 338 338 338 339 339 339 339 340 340 340 339 339 338 337 337 337 337 337 337 337 337 337 337 337 338 338 338 338 337 337 336 336 336 336 336 335 336 335 334 333 334 334 333 334 333 332 332 332 332 332 333 334 333 331 332 333 334 334 333 333 333 332 331 331
331 330 330 330 330 330 330 330 330 330 331 331 331 332 333 335 336 337 336 337 338 337 337 338 338 338 338 339 339 340 339 339 339 338 338 338 338 337 337 337 337 337 337 337 336 337 337 337 337 337 337 336 336 336 336 336 335 335 335 333 332 333 334 333 333 332 332 332 332 332 332 333 334 333 332 334 334 334 334 333 333 333 332 331 330
330 330 329 330 329 329 328 328 329 328 328 329 329 330 330 331 333 333 333 333 335 336 336 337 337 338 338 338 338 338 339 339 339 338 339 339 339 338 338 337 338 338 338 337 336 336 337 337 336 336 337 337 337 336 336 336 336 336 335 335 334 334 334 333 331 331 331 332 331 331 332 333 333 332 334 336 335 334 334 333 333 333 332 331 331
329 328 328 328 328 327 327 327 327 327 327 326 327 327 328 328 330 331 330 331 332 333 334 335 335 336 336 337 337 337 337 338 337 337 338 338 338 338 338 338 338 338 338 337 337 336 336 336 336 335 335 335 336 335 335 336 336 336 335 335 335 333 333 333 331 330 331 331 332 331 330 331 332 331 332 335 335 334 333 334 334 333 332 332 332
328 327 326 327 326 326 326 325 325 326 325 325 325 325 326 326 327 328 328 328 329 330 331 332 333 334 334 335 335 335 335 335 335 335 335 335 336 336 336 336 336 336 336 336 337 336 335 334 335 334 334 334 335 335 335 335 336 336 335 335 334 331 330 332 332 331 332 331 332 332 329 329 331 330 331 332 334 335 334 333 334 333 332 332 332
326 326 325 325 325 325 324 324 324 324 324 324 324 324 324 324 324 325 326 326 327 328 329 329 330 331 331 331 331 332 333 333 334 334 334 334 334 334 335 334 335 335 335 335 335 336 335 334 334 333 333 334 334 335 334 334 334 335 334 335 334 332 331 332 332 331 332 332 332 332 329 329 330 331 330 329 330 334 335 333 332 332 333 332 332
324 324 325 324 324 323 323 323 323 323 323 323 323 323 323 324 324 323 323 324 325 326 326 326 327 328 327 327 327 328 329 331 332 332 332 333 333 333 334 334 334 334 335 334 334 334 334 334 334 333 333 333 333 333 334 334 334 335 335 334 334 333 332 332 331 331 332 332 332 331 330 330 330 329 330 329 330 333 334 333 331 332 333 332 332
323 323 324 323 323 322 321 321 322 322 322 322 322 322 322 323 323 322 322 323 324 324 324 324 324 324 324 324 324 325 326 327 329 329 330 331 331 331 332 332 333 333 333 334 334 333 333 332 333 334 334 333 332 332 333 335 335 334 334 334 334 333 332 332 331 331 332 332 332 331 330 330 330 329 330 330 330 332 334 333 331 331 332 331 331
322 322 322 322 321 321 320 320 320 321 321 321 321 321 321 322 321 322 322 322 323 323 323 323 322 322 321 322 322 322 323 325 326 327 327 328 328 328 329 330 331 331 332 332 333 333 333 332 332 333 333 334 333 333 333 334 334 333 333 333 334 333 333 332 331 331 332 332 332 331 330 330 331 331 331 331 331 333 333 332 331 331 332 331 331
320 320 320 320 320 320 319 319 319 320 320 319 320 320 320 320 320 321 321 321 322 322 321 321 320 320 320 320 320 321 322 323 324 324 325 325 326 326 327 328 328 329 330 331 332 333 333 332 332 332 332 333 333 333 333 333 334 333 333 333 333 333 333 332 330 330 331 332 332 331 331 331 331 332 332 332 333 332 331 331 331 332 332 331 331
319 319 319 319 319 319 318 318 318 319 319 319 319 319 319 319 319 319 319 320 321 321 320 319 319 320 320 320 320 320 320 321 321 322 321 322 323 324 324 325 325 325 325 327 330 331 331 332 332 331 332 332 332 333 333 333 333 333 333 333 333 333 333 332 330 330 330 331 330 331 332 332 333 333 333 334 332 329 329 331 331 331 331 330 330
318 317 318 318 318 318 318 318 318 318 318 319 318 318 319 319 319 318 318 318 319 320 319 318 318 318 319 320 320 320 319 319 319 319 319 320 321 321 321 321 322 323 324 325 327 328 329 330 331 331 331 330 330 331 331 332 332 332 333 332 333 333 333 332 330 329 330 331 330 330 332 331 332 334 334 335 334 331 331 330 331 331 331 329 328
317 317 317 317 317 317 317 317 317 317 318 318 318 317 318 318 318 318 317 317 318 319 319 318 317 317 318 318 319 319 318 318 318 318 318 319 319 319 319 320 321 322 323 324 325 326 328 329 329 330 330 330 330 330 330 330 331 331 331 331 332 332 333 333 331 330 331 331 330 331 331 329 331 333 334 334 334 333 333 331 331 331 330 331 329
316 317 317 317 317 317 317 317 317 317 318 318 317 317 317 317 317 317 316 316 317 318 317 317 317 317 317 317 317 317 317 318 318 317 317 317 318 318 318 318 319 320 321 322 323 324 326 327 328 329 329 329 329 329 330 330 329 330 330 331 331 331 331 332 332 332 332 332 332 332 332 331 331 333 333 333 333 333 333 331 332 330 329 331 331
316 316 317 317 317 317 317 317 317 317 317 317 316 316 316 316 316 316 316 316 316 317 316 316 316 316 315 315 316 315 315 316 316 316 315 316 316 317 317 317 317 318 318 319 320 321 322 324 326 327 327 328 329 329 329 329 329 329 330 330 330 329 329 330 331 332 332 332 333 332 333 333 332 332 332 332 332 333 333 332 331 330 328 329 330
316 317 317 316 316 317 317 316 317 317 316 315 315 315 315 315 315 315 315 315 316 315 315 315 315 315 315 315 315 315 314 314 314 314 314 314 314 315 315 315 315 315 316 316 318 319 319 321 322 322 323 326 328 328 328 329 328 328 329 329 329 329 329 329 329 330 331 331 332 332 332 333 333 333 333 332 332 332 333 332 330 329 328 329 329
316 317 317 316 316 316 316 316 316 315 315 314 314 314 314 314 314 314 314 315 315 315 314 314 314 313 313 313 314 313 313 313 313 313 313 313 313 313 313 313 313 313 313 314 315 316 317 317 318 318 319 321 323 325 328 328 328 328 328 329 329 328 328 328 328 329 330 331 330 330 332 333 332 333 332 332 332 333 333 331 329 329 329 329 329
316 317 317 315 316 316 314 314 314 314 314 314 313 313 314 314 314 313 314 314 314 313 314 314 313 313 313 312 312 312 312 312 312 311 312 312 311 311 311 312 311 311 311 312 313 313 314 314 314 315 316 317 319 321 324 325 325 326 327 329 329 328 328 328 329 330 330 330 330 329 330 332 332 333 332 332 332 333 333 331 329 328 329 330 330
317 317 316 315 315 314 314 313 313 313 313 313 312 313 313 313 313 313 313 313 313 313 312 312 312 312 312 311 311 311 311 311 311 310 310 310 310 309 310 310 309 309 309 309 310 310 311 311 311 311 312 314 316 317 317 318 318 319 321 324 327 328 328 328 329 330 329 329 330 329 329 331 332 333 332 332 332 332 332 331 329 328 329 331 330
317 316 315 314 314 313 313 313 313 313 313 312 312 312 312 312 312 312 312 312 313 312 311 311 311 311 310 310 310 310 309 310 309 309 309 309 309 309 308 308 308 308 308 308 308 308 308 308 308 308 308 310 313 313 313 313 313 313 315 317 321 324 326 328 329 329 328 327 329 330 329 330 331 332 333 333 333 332 332 332 331 330 329 330 329
316 315 313 313 313 313 313 312 312 312 312 312 312 311 311 311 312 312 311 312 312 311 310 310 310 310 310 309 309 309 309 309 308 308 308 308 308 308 307 307 307 307 307 306 306 306 306 306 306 306 306 307 309 310 309 310 309 309 310 313 316 319 323 326 328 328 328 327 328 329 329 330 330 331 332 332 333 333 331 331 331 332 331 329 328
315 314 313 312 312 312 312 311 311 311 311 311 311 310 311 311 311 311 311 311 311 310 309 309 309 309 309 309 309 308 308 308 308 307 307 307 307 307 307 307 306 306 306 305 305 304 305 304 304 304 304 305 307 307 305 305 305 306 307 309 312 315 319 323 326 328 328 327 328 328 329 329 330 331 332 332 332 332 331 330 330 331 332 330 328
313 312 312 312 311 311 311 311 310 310 310 310 310 310 310 311 310 310 310 310 309 309 308 308 308 308 308 308 308 308 307 307 307 307 307 306 306 306 306 306 305 305 305 304 304 304 303 303 303 303 302 303 305 304 301 300 301 303 305 307 309 313 316 319 323 326 328 328 328 329 328 328 328 329 330 331 331 332 332 332 331 331 331 331 330
312 312 312 311 310 310 310 310 310 310 310 309 309 309 310 310 309 309 309 309 308 308 308 307 307 307 307 307 307 307 307 306 306 306 306 306 306 305 305 305 305 304 304 304 303 303 303 302 302 301 301 302 303 301 298 298 298 300 302 304 307 310 313 317 320 324 326 328 328 328 329 328 327 328 329 329 331 332 332 332 332 332 331 331 330
312 311 311 310 310 309 309 309 309 309 309 309 309 309 309 309 309 309 308 308 307 307 307 307 307 307 307 306 306 306 306 306 306 306 305 305 304 304 304 305 305 304 303 303 303 303 302 301 301 301 300 301 301 299 297 297 297 297 299 302 305 308 310 313 317 321 325 327 328 328 329 328 328 329 328 327 330 332 332 332 332 331 331 330 330
311 311 310 310 310 309 308 308 308 308 308 308 308 308 308 309 309 308 307 307 307 307 307 307 306 306 306 306 306 305 305 305 305 305 305 304 304 303 304 304 304 304 303 303 303 303 302 301 300 300 299 299 300 298 297 297 296 296 297 299 303 306 307 310 314 319 322 325 327 328 328 328 328 328 328 327 329 331 332 332 332 332 330 331 330
310 310 310 309 309 308 308 308 308 308 308 308 308 308 308 308 308 307 307 307 307 306 306 306 306 306 306 305 305 305 305 305 305 304 304 304 304 303 303 303 303 303 303 303 303 303 302 301 300 299 299 299 299 298 297 297 297 297 297 298 302 306 307 309 312 315 319 323 325 327 328 327 328 328 327 327 328 330 331 331 331 331 331 330 330
310 309 309 308 308 308 308 307 307 308 308 308 307 307 307 307 307 307 307 306 306 306 306 305 305 305 305 305 304 305 305 305 304 304 304 304 304 303 303 303 302 302 302 302 302 302 302 300 300 299 299 299 298 297 297 297 298 299 299 300 303 306 308 309 310 311 316 321 323 325 327 327 327 327 327 327 328 328 329 330 330 331 331 330 329
309 309 308 308 307 307 307 307 307 307 307 307 307 307 307 306 306 306 306 306 305 305 305 305 304 304 304 304 304 304 304 304 304 303 303 303 303 303 303 303 302 301 301 301 302 302 301 300 300 299 299 299 298 297 297 297 298 300 302 303 304 305 307 308 308 309 313 318 321 324 326 327 327 327 327 327 328 328 328 329 330 330 330 330 328
309 308 308 307 307 307 307 307 307 307 307 307 307 306 306 306 306 306 305 305 305 305 304 304 304 304 304 304 304 303 303 304 303 303 302 302 302 302 303 303 302 301 300 301 301 301 300 300 299 299 299 298 298 297 297 297 298 299 302 303 302 302 305 308 309 310 313 316 319 322 324 326 326 326 327 327 328 328 328 328 329 330 330 330 329
308 308 307 307 306 306 306 306 306 307 306 306 306 306 306 305 305 305 305 304 304 304 304 304 303 303 303 303 303 303 303 303 303 302 302 301 301 301 302 302 302 301 300 301 300 300 299 299 298 298 298 298 297 297 297 297 297 299 301 302 300 300 303 306 307 310 312 314 317 320 323 325 325 326 327 328 328 328 328 329 329 329 329 329 328
308 308 306 306 306 306 306 306 306 306 306 306 306 305 305 305 305 305 304 304 304 304 304 303 303 303 303 303 302 302 302 303 303 302 302 301 301 301 301 302 302 301 300 300 300 299 299 298 298 298 297 297 297 296 297 297 298 298 299 300 299 299 300 302 303 306 308 310 312 316 320 323 325 325 326 327 328 328 328 328 328 328 329 328 326
308 307 306 306 306 306 306 306 305 305 305 305 305 305 305 304 304 303 304 304 303 303 303 303 303 302 302 302 302 302 302 302 302 301 301 301 301 300 300 301 301 300 300 300 300 299 299 298 297 297 297 297 296 296 296 297 297 298 298 298 298 298 298 299 300 301 303 306 308 310 313 317 321 324 326 327 328 328 328 327 327 327 327 326 325
306 306 306 306 306 305 305 305 305 304 304 304 304 304 304 304 303 303 303 303 302 302 303 303 303 302 302 302 301 301 301 302 301 301 300 300 300 301 300 300 300 300 300 300 300 299 298 298 297 297 297 297 296 296 296 296 297 297 297 297 297 297 298 298 298 299 300 303 305 306 307 310 313 318 322 325 327 328 327 326 325 325 325 325 325
306 306 305 305 305 305 304 304 304 304 303 303 303 303 303 303 303 302 302 303 302 302 302 303 302 302 302 302 301 301 301 301 301 301 300 299 300 300 300 300 300 300 300 300 299 299 298 298 298 297 297 296 296 296 296 296 296 296 297 296 296 297 297 297 297 298 298 300 303 304 305 306 307 311 316 320 323 326 327 325 324 323 323 322 322
305 305 305 305 305 304 304 303 303 303 303 303 303 302 302 302 302 302 302 302 302 302 302 302 302 302 302 302 301 301 301 301 301 301 300 300 299 300 300 300 300 299 299 300 299 299 298 298 298 298 297 296 296 296 295 296 296 296 296 296 296 296 296 297 297 297 297 298 300 302 304 304 306 309 313 316 319 323 326 326 324 323 322 321 321
305 304 304 304 304 303 303 303 303 303 303 303 302 302 302 302 302 302 301 301 301 301 301 302 302 302 302 302 302 301 301 301 301 301 300 300 299 299 299 300 300 299 299 299 299 299 298 298 298 298 297 296 296 295 295 295 296 296 295 296 296 295 295 296 297 296 296 297 298 299 301 302 304 308 312 316 318 322 325 325 324 323 322 321 321
304 304 304 304 303 303 303 303 302 302 302 302 302 302 301 302 301 301 301 301 301 301 301 301 301 301 302 302 302 301 301 301 301 301 300 300 299 299 299 299 299 300 299 299 299 299 298 298 298 298 297 296 296 295 295 295 296 296 295 295 295 295 295 296 296 296 296 296 296 297 299 300 302 305 310 315 318 320 323 324 324 324 323 322 321
304 304 303 303 303 303 303 302 302 302 302 302 301 301 301 301 301 301 301 301 301 301 300 300 301 300 301 302 302 301 301 301 301 301 301 300 299 298 298 298 299 299 299 299 299 299 298 298 298 297 297 296 295 295 295 295 295 296 296 295 295 295 296 296 296 295 295 295 295 296 297 300 302 303 306 311 316 319 322 323 323 322 321 319 318
304 303 303 303 303 303 302 302 302 302 302 301 301 301 301 301 301 301 301 301 300 300 300 300 300 300 299 300 302 301 301 301 301 300 300 300 299 298 298 298 298 299 299 299 299 299 299 298 297 297 296 295 295 295 295 295 295 295 296 296 295 295 296 296 296 295 295 295 295 296 297 299 302 303 303 305 309 314 319 321 321 319 317 316 314
303 303 303 303 303 303 302 302 302 302 302 301 301 301 301 301 301 301 300 300 300 300 300 300 300 300 299 299 301 301 301 300 300 300 300 300 299 298 298 298 298 298 299 299 299 299 299 298 297 296 295 295 295 296 296 296 296 295 295 295 295 295 295 296 296 296 295 295 296 296 297 299 301 303 303 302 303 307 311 315 317 315 314 313 311
303 303 303 303 303 303 302 302 302 302 302 301 301 301 301 301 301 300 300 300 300 300 299 299 299 299 299 299 300 301 301 300 300 300 300 300 299 298 298 298 297 298 298 298 298 298 299 299 297 296 295 295 295 296 296 296 296 295 295 295 295 295 295 295 296 296 297 297 297 297 297 298 299 302 303 301 301 303 305 307 310 311 310 309 308
302 303 303 303 303 302 302 302 302 302 302 301 301 301 301 301 301 300 300 300 300 300 299 299 299 299 299 299 300 301 301 300 300 300 300 300 299 298 298 298 298 297 298 298 298 298 298 299 298 296 295 295 295 295 296 296 296 295 295 295 295 295 295 295 295 296 297 297 298 297 297 297 296 298 300 300 299 301 302 302 303 305 305 305 305
302 302 302 302 302 302 302 302 302 302 302 302 301 301 301 301 301 300 300 300 300 300 299 299 299 299 300 299 299 300 301 300 300 300 300 300 299 299 298 298 298 297 297 298 298 297 297 297 297 296 295 295 295 295 295 295 295 295 295 295 295 295 295 295 294 295 295 296 297 298 298 297 296 296 298 298 298 298 300 300 299 300 301 302 302
302 302 302 302 302 301 301 301 302 302 302 302 302 301 301 301 301 300 300 300 300 300 299 299 299 299 299 299 299 299 300 300 300 300 300 300 300 299 298 298 298 297 297 297 297 297 297 296 296 295 295 295 295 294 295 295 295 295 295 295 295 295 295 294 293 293 294 294 296 297 298 298 297 296 296 296 296 296 296 297 297 298 299 300 300
302 302 302 301 301 301 301 301 302 302 302 302 301 301 301 301 300 300 300 300 299 299 299 299 299 299 300 299 299 299 299 299 300 300 300 300 300 299 298 298 298 298 298 297 297 297 297 296 295 295 295 295 295 294 294 295 295 296 296 296 295 295 295 294 293 293 294 294 294 294 294 294 294 294 294 294 294 294 295 295 296 296 297 298 298
301 301 301 301 301 300 301 301 302 302 302 302 301 301 301 300 300 300 300 300 300 299 299 299 299 299 299 299 299 299 299 298 299 299 299 299 300 300 299 299 299 298 298 297 297 297 297 296 295 295 295 295 295 295 294 295 295 295 296 296 295 295 295 295 294 294 294 293 292 292 292 291 291 291 291 291 292 293 293 294 295 295 296 296 296
301 301 301 300 300 300 300 300 301 301 302 301 302 302 301 300 300 300 300 300 300 299 299 298 298 298 299 300 299 299 299 298 298 299 298 298 299 299 299 299 299 299 298 298 297 297 297 296 295 294 294 295 295 295 294 294 295 295 295 296 295 295 295 295 294 294 293 292 291 291 291 291 291 291 291 291 291 291 292 292 293 293 294 294 295
Wind_Speed
11 15 19 19 17 16 15 15 17 15 14 14 13 11 13 13 12 11 10 8 6 5 3 3 2 2 1 1 3 4 5 6 4 4 6 6 7 8 10 13 15 15 16 18 19 19 19 20 21 22 22 22 23 25 26 25 25 25 26 25 23 21 21 19 17 15 13 12 12 15 19 19 15 14 15 16 17 19 19 18 17 17 16 13 15
11 15 19 22 21 22 22 21 21 19 18 18 18 18 16 15 13 12 10 8 6 5 4 4 4 3 3 2 1 1 3 3 3 4 5 6 7 7 8 12 15 16 16 18 19 20 20 20 21 23 24 24 24 25 26 26 26 25 25 25 23 22 22 21 19 15 12 12 10 8 11 15 15 15 16 16 17 19 19 18 18 18 16 14 16
10 11 14 18 20 22 23 22 22 21 22 22 21 21 20 17 15 13 12 10 8 7 5 4 4 4 3 3 2 2 3 3 3 3 4 6 8 8 8 9 14 15 16 17 19 21 21 22 23 24 24 24 24 24 25 26 27 27 26 26 23 21 21 20 20 19 17 13 8 3 3 5 8 12 15 17 19 19 19 19 18 18 17 16 17
9 10 11 14 18 20 20 20 21 21 23 23 22 22 22 20 18 16 14 12 11 10 8 6 5 5 4 3 2 2 3 4 5 4 3 4 6 7 7 8 10 13 14 16 18 19 20 21 22 23 23 24 24 25 26 26 27 27 27 25 22 20 21 21 21 22 21 15 6 2 2 1 2 6 11 17 21 20 19 19 19 19 19 18 18
9 9 9 12 16 17 18 19 20 21 22 22 22 22 21 20 18 17 15 13 13 13 11 10 8 7 7 5 4 3 4 5 6 7 6 5 6 6 6 6 8 10 12 14 15 16 18 20 20 21 21 22 24 25 26 26 25 26 26 25 25 24 24 23 22 23 25 22 14 5 2 2 3 4 7 13 20 21 20 20 20 20 20 20 20
9 9 9 11 14 16 18 19 19 21 21 21 21 21 21 19 17 17 16 15 14 14 14 13 12 10 10 10 8 7 6 6 7 8 8 7 7 8 8 7 8 9 11 12 13 15 17 19 20 20 21 22 24 25 25 26 25 26 27 27 28 28 26 22 19 21 24 25 24 16 8 5 3 4 3 4 12 19 20 21 21 20 21 21 20
8 9 10 12 14 15 17 18 19 20 20 20 20 20 20 18 16 16 15 15 14 14 14 15 14 13 13 13 11 11 11 9 9 10 9 9 9 9 8 8 10 10 11 13 14 15 17 19 20 19 21 23 23 23 23 25 26 27 27 28 29 29 26 23 19 19 21 22 26 25 17 9 6 6 4 2 3 9 15 19 20 20 21 22 22
8 8 9 12 14 15 16 17 19 20 20 19 19 19 19 18 16 14 13 14 14 15 15 16 17 16 16 16 14 15 14 14 13 12 12 12 12 11 10 10 10 11 12 13 14 15 15 16 17 16 19 23 23 23 23 24 25 26 26 28 29 27 26 25 22 20 21 20 23 26 23 19 14 11 10 7 2 3 7 13 17 19 21 22 23
9 8 9 12 15 15 16 17 19 20 19 17 16 17 18 18 17 15 14 14 14 15 16 17 17 16 18 18 17 17 16 15 14 14 15 15 15 14 13 14 12 11 12 13 14 15 15 16 17 16 18 22 22 23 24 24 23 24 26 28 28 27 28 28 25 24 24 23 22 23 23 22 19 16 14 11 7 5 4 5 11 14 16 21 25
8 8 11 14 15 16 16 18 19 18 16 14 13 14 15 15 15 16 16 14 13 15 17 18 17 17 18 19 19 19 18 17 16 18 19 18 18 18 16 16 15 12 13 14 15 16 17 17 18 17 16 18 19 20 21 22 22 24 26 27 28 27 27 27 27 28 27 26 24 22 22 20 14 11 13 13 11 8 5 5 10 13 11 17 25
7 8 10 13 15 16 17 17 16 14 13 12 11 12 13 13 13 14 15 14 13 14 15 17 19 19 19 19 19 20 19 18 19 19 20 19 19 20 20 20 18 16 16 17 17 17 17 17 17 16 15 16 17 18 19 20 21 22 22 23 25 25 24 25 28 29 27 27 26 24 25 25 20 16 17 17 13 8 5 4 10 16 14 16 23
7 7 8 10 13 15 16 16 14 12 12 12 12 12 13 13 12 11 12 13 13 13 14 16 18 19 19 20 19 19 18 18 19 18 18 18 18 20 21 22 22 21 20 19 18 18 19 19 17 17 17 16 16 17 18 20 21 21 20 21 23 25 24 24 26 27 27 27 27 26 27 28 27 24 22 22 21 18 11 5 7 13 13 13 19
7 6 6 7 10 12 14 13 12 11 13 13 13 12 13 13 13 13 13 13 12 13 15 17 17 17 17 19 20 19 19 19 18 18 18 18 18 20 21 21 22 23 23 22 21 19 19 19 20 18 18 17 16 16 18 19 20 20 19 19 21 22 23 23 25 26 27 28 30 29 27 26 26 25 23 24 23 20 13 7 9 12 10 10 14
7 6 6 7 10 12 13 12 11 10 10 11 11 11 11 13 15 16 16 15 13 14 16 18 19 19 16 16 19 19 21 19 18 19 19 18 19 20 21 21 21 23 24 24 22 21 20 20 21 20 18 18 17 16 17 19 20 20 19 19 20 21 21 22 24 25 26 29 30 29 28 27 26 25 24 24 21 18 16 12 9 9 8 9 10
7 6 6 8 11 13 12 11 9 8 7 8 9 9 10 10 13 16 17 17 16 14 16 19 22 23 20 18 18 18 21 20 18 18 18 18 19 20 21 22 21 23 24 23 23 23 23 22 21 21 20 20 19 18 18 19 20 20 20 20 20 20 19 20 21 23 25 27 28 29 28 29 29 26 25 24 22 22 23 21 14 7 4 5 6
7 5 6 9 12 13 11 8 5 6 7 8 8 8 11 12 13 15 17 20 19 16 18 21 24 25 24 23 21 21 22 21 19 20 19 18 19 19 21 22 22 23 23 23 23 24 24 24 24 23 22 22 21 19 18 18 20 21 21 21 20 20 21 22 21 22 23 26 28 28 27 28 30 29 28 26 24 23 23 23 21 14 8 4 3
6 5 6 7 9 10 9 6 3 4 7 9 9 10 13 16 15 15 19 21 20 20 22 24 25 25 25 24 24 24 24 22 21 22 22 21 20 21 22 23 23 24 24 23 23 23 23 24 24 24 23 24 23 21 19 19 20 20 20 20 19 20 22 23 23 23 24 26 27 28 27 27 29 29 30 29 27 24 22 23 24 22 16 7 3
6 6 6 6 7 9 9 6 4 5 8 12 14 15 16 18 18 18 20 22 21 22 24 25 25 25 25 24 24 25 26 24 23 24 25 23 22 23 23 24 25 25 25 25 24 24 24 23 24 25 25 25 24 23 22 21 21 21 21 21 21 20 20 21 22 23 24 25 26 27 28 28 28 29 29 29 28 26 25 25 24 22 20 13 7
6 5 4 4 6 9 9 7 7 10 14 16 17 17 17 18 20 20 21 21 22 23 25 25 25 25 24 24 25 26 26 25 25 26 25 25 25 24 25 26 25 25 25 25 25 25 25 25 25 26 26 26 25 25 24 24 23 22 22 23 23 20 19 21 23 24 25 25 26 27 27 28 28 28 28 28 28 28 26 24 22 20 20 21 16
5 3 3 5 6 8 10 11 13 16 18 17 15 16 16 17 20 20 20 21 22 24 24 24 25 25 25 25 26 26 26 25 26 27 26 26 27 26 27 27 26 26 26 25 25 25 26 27 27 27 27 27 27 27 26 25 24 23 22 22 23 20 19 22 24 26 26 26 27 27 28 29 28 27 28 28 27 27 26 23 23 24 23 24 22
4 3 2 3 8 12 15 15 16 16 17 16 14 14 16 17 19 19 20 21 22 24 24 24 25 26 26 26 26 26 26 26 27 29 28 28 29 29 28 27 27 28 27 26 26 25 26 27 27 28 27 27 28 29 27 26 25 25 23 22 23 23 22 22 25 26 26 25 26 27 27 27 26 25 26 27 27 27 26 24 24 26 27 26 25
4 2 1 5 11 15 16 15 15 16 16 15 15 16 17 17 18 19 21 21 21 23 25 25 26 26 26 26 27 28 28 28 29 30 30 29 30 30 28 28 28 29 28 27 27 26 27 27 27 29 28 27 28 28 26 26 26 26 25 22 23 24 23 23 24 25 24 23 25 28 28 28 26 26 26 27 28 27 25 25 26 29 31 30 27
3 3 5 8 12 14 14 14 14 14 14 14 16 18 18 17 18 20 23 23 22 24 25 26 26 26 26 26 27 28 29 29 30 31 31 30 30 30 29 29 29 29 29 28 28 27 28 28 28 30 29 28 27 25 25 29 30 30 29 26 23 22 22 24 24 23 21 22 24 26 28 30 28 25 26 27 28 27 25 25 28 30 31 29 25
4 4 7 11 12 11 11 12 13 14 14 15 18 19 19 20 21 23 24 24 24 25 26 26 26 26 27 28 28 29 30 29 30 31 31 30 30 29 29 29 30 29 29 29 29 28 28 29 29 30 30 30 27 25 29 33 35 35 34 31 27 23 21 22 24 24 22 21 24 26 26 29 28 25 24 26 28 28 27 28 29 29 29 26 24
5 6 8 11 13 13 13 14 16 17 17 18 19 18 18 20 23 24 25 25 26 26 27 27 27 27 28 29 29 30 31 30 30 31 31 30 30 30 29 29 30 30 30 30 31 30 29 29 29 28 30 29 27 28 34 39 39 38 36 33 30 27 23 20 21 23 23 22 24 27 27 26 26 25 24 26 29 29 28 29 30 29 29 27 25
8 8 8 9 12 13 14 15 16 16 17 19 17 16 18 20 23 24 24 25 26 26 26 26 26 27 28 29 29 30 31 31 30 30 30 30 30 30 29 29 29 30 30 31 32 32 30 29 29 28 28 27 26 30 38 43 43 40 37 34 32 29 26 22 19 20 22 24 25 27 28 27 26 25 25 25 27 30 30 31 30 29 30 28 27
7 8 8 9 10 11 14 15 14 16 17 17 16 17 20 22 23 23 23 24 24 24 24 24 25 26 27 28 29 29 29 30 29 29 30 30 30 29 29 28 28 30 31 31 31 31 31 30 29 28 28 26 25 30 39 43 44 43 38 35 32 30 28 25 21 19 21 23 24 25 27 28 27 27 27 26 27 28 29 31 31 31 30 28 26
7 7 8 8 7 9 13 15 15 17 17 17 18 19 20 20 21 22 22 21 21 21 21 23 24 26 28 28 28 28 28 27 27 28 29 29 30 30 29 28 27 29 31 31 30 30 31 32 30 28 28 26 24 30 39 42 43 43 40 36 32 30 28 26 24 20 19 21 23 24 25 26 27 28 30 30 30 29 28 29 31 30 28 28 28
8 8 8 7 6 9 13 14 14 16 16 16 17 18 18 19 19 20 20 19 19 20 21 24 26 27 28 28 27 27 27 27 27 28 28 29 30 31 30 29 28 29 29 30 28 28 31 33 32 30 29 27 26 31 40 43 42 41 40 37 32 29 28 26 24 22 20 19 21 23 24 26 27 28 30 31 31 31 30 29 30 30 29 29 29
9 9 7 6 7 10 11 11 11 12 13 15 16 15 16 17 17 18 20 19 19 21 23 26 27 27 27 27 26 25 26 27 28 28 27 27 28 29 30 30 29 29 29 29 27 27 30 32 32 32 31 28 28 35 42 45 44 42 39 36 33 29 26 25 24 22 20 19 20 22 24 25 26 27 28 30 32 33 32 31 31 31 32 32 29
9 8 7 6 8 10 10 9 10 11 13 15 16 17 17 18 16 16 18 20 21 23 25 27 27 27 26 26 26 26 25 25 28 28 27 26 26 27 28 28 29 30 30 29 27 27 29 30 30 31 31 28 31 39 46 47 48 46 40 35 31 27 24 24 23 22 20 20 20 21 23 24 25 26 27 29 33 34 34 33 32 32 34 34 30
9 8 7 6 7 9 9 9 10 12 14 15 16 18 19 20 19 17 17 20 23 24 25 26 27 27 26 26 27 27 26 25 26 29 29 27 26 25 25 26 28 30 30 29 28 27 28 30 29 30 30 30 34 42 47 48 50 48 40 34 31 29 27 26 24 22 21 21 21 21 22 23 25 25 26 29 31 33 34 34 31 32 35 34 33
8 8 7 6 8 9 9 8 10 12 14 15 16 18 18 18 18 19 19 20 21 22 23 25 27 27 27 27 27 28 28 25 25 27 29 29 28 27 25 24 27 30 30 29 29 28 28 29 29 30 30 30 34 42 47 48 51 50 43 37 34 32 30 29 27 25 23 22 22 21 22 23 24 24 26 28 30 31 32 31 30 31 34 33 32
8 7 6 8 9 9 7 7 10 13 14 15 17 17 16 15 16 18 20 20 20 21 22 25 26 27 27 27 27 28 28 26 24 26 29 29 30 30 26 23 26 30 31 28 27 28 29 29 29 30 30 29 34 42 46 47 50 51 47 42 37 33 31 30 28 25 23 23 23 22 23 24 25 25 26 27 29 30 30 31 31 32 32 31 31
7 6 7 9 9 7 7 10 13 13 13 16 16 14 13 14 16 17 18 19 21 22 22 24 26 27 27 27 27 27 28 27 25 26 28 28 29 31 29 25 25 29 30 27 26 27 28 30 30 30 30 30 33 41 45 46 48 49 48 45 41 37 34 33 31 29 27 24 21 19 19 22 25 26 28 28 28 28 28 29 31 31 32 29 25
8 8 10 10 8 9 11 13 13 13 13 14 14 12 12 16 18 18 17 19 23 22 20 22 25 26 26 26 27 27 27 26 26 27 27 27 27 28 29 26 25 27 28 26 26 26 27 29 30 31 32 32 34 40 44 45 46 47 47 46 44 40 37 37 36 33 31 29 25 21 18 17 19 21 25 28 29 28 27 27 27 27 28 27 23
12 13 13 11 9 12 14 14 15 16 15 15 15 15 16 19 18 18 18 20 21 21 19 21 23 24 24 24 24 24 24 24 24 25 26 26 25 25 26 26 25 25 27 26 26 26 26 27 29 31 33 34 35 39 43 44 45 45 44 43 44 42 37 37 37 34 32 32 29 25 22 20 17 15 19 25 29 30 28 27 26 24 24 24 24
14 14 13 10 10 14 16 17 19 19 18 18 18 18 19 19 17 17 18 18 18 18 18 20 22 22 22 21 21 22 23 22 22 23 24 25 25 24 23 24 24 24 25 26 26 27 27 28 29 31 32 34 36 39 42 43 44 44 42 39 41 43 38 36 37 36 35 35 32 28 26 25 22 17 18 22 26 31 31 28 26 25 23 23 24
14 14 12 10 13 18 19 18 18 18 17 17 16 17 18 17 16 17 18 18 19 19 19 19 19 20 20 20 20 20 21 20 20 20 22 24 25 25 22 22 22 23 24 25 25 26 29 29 29 31 32 33 35 38 41 42 42 43 43 39 39 42 40 36 37 37 37 37 36 33 31 29 27 22 20 21 24 30 31 28 28 28 25 24 25
16 15 13 13 17 19 18 17 16 15 13 14 15 16 16 15 15 15 16 18 19 19 18 17 16 16 17 17 18 18 19 19 19 18 20 23 24 24 23 22 20 21 23 23 24 26 28 29 29 30 32 33 34 37 39 41 40 40 42 41 39 40 39 35 35 36 37 38 38 37 37 34 30 26 22 21 22 27 30 29 29 30 28 27 26
17 16 14 16 17 17 17 17 16 13 13 14 16 15 14 14 15 16 16 17 17 15 14 14 14 15 14 14 16 18 18 18 19 17 18 22 24 22 22 23 21 20 21 22 23 25 28 29 28 29 31 33 34 36 37 39 39 39 40 40 39 39 37 33 32 34 35 37 38 38 38 36 32 26 22 21 20 24 27 27 30 31 30 29 29
13 16 17 17 17 17 17 17 15 14 14 14 13 12 12 14 15 15 15 16 15 14 15 16 15 16 15 12 12 16 18 18 18 17 17 20 23 22 22 23 22 21 21 22 22 23 26 28 28 28 30 32 34 35 36 37 39 38 38 39 38 38 37 32 31 32 34 35 36 36 36 35 32 26 19 15 14 18 22 26 30 29 27 28 31
13 18 19 16 16 17 17 16 15 14 14 13 13 15 16 16 16 15 15 15 15 14 15 16 15 16 17 14 10 13 18 17 16 16 16 18 21 22 22 23 23 22 22 22 22 22 24 27 28 28 29 31 33 34 35 36 37 38 38 38 38 37 36 33 30 30 32 33 35 35 35 34 32 29 27 22 11 8 17 24 27 26 27 31 32
14 19 19 16 17 17 16 15 14 13 13 13 15 17 17 16 15 12 13 16 16 14 13 15 17 16 16 15 11 11 16 17 15 14 15 16 19 21 22 23 24 22 22 23 22 21 22 25 27 27 29 30 32 33 34 35 36 37 37 38 38 37 36 34 30 28 30 32 33 33 33 33 33 31 32 33 27 14 11 20 27 30 31 34 34
17 21 20 17 17 16 15 14 14 13 13 13 14 14 14 14 14 12 12 15 16 15 13 14 19 18 16 15 13 10 13 16 14 13 14 15 17 20 20 21 23 23 21 22 23 22 21 22 25 26 27 29 31 32 34 34 35 36 36 37 37 37 35 33 30 27 27 29 31 32 31 33 34 33 33 36 37 31 25 22 27 32 32 32 33
22 22 20 18 17 16 15 13 12 12 11 10 11 13 14 14 14 12 12 14 15 15 13 14 19 19 18 17 14 10 10 14 13 12 13 13 15 17 18 19 21 22 21 21 22 23 21 20 23 25 27 28 29 32 34 34 34 35 35 35 36 37 35 33 31 27 24 25 28 31 32 34 36 35 35 37 39 36 33 30 29 30 30 30 30
23 21 20 19 17 16 15 13 12 11 10 10 12 13 13 13 13 12 11 13 15 16 14 13 16 18 19 20 18 11 10 13 13 11 11 12 13 14 16 17 19 20 21 21 21 23 23 21 22 24 26 28 29 31 33 34 34 34 34 34 34 36 35 34 32 30 27 26 26 28 30 33 36 37 37 37 39 39 37 35 34 33 33 32 31
22 22 22 19 17 16 16 14 13 11 11 13 15 14 12 13 14 11 9 11 15 16 15 14 15 17 19 20 19 16 13 13 13 11 11 11 11 12 14 15 17 18 20 20 20 21 22 22 23 24 26 27 29 31 33 33 33 32 31 31 31 33 34 33 31 30 30 30 29 28 29 31 34 37 39 38 38 39 38 37 36 36 36 35 32
22 23 22 19 17 17 16 15 13 11 11 13 13 11 11 13 13 10 9 10 13 16 16 15 14 16 17 16 17 18 17 16 13 11 11 12 11 11 11 13 14 16 17 19 20 20 21 23 25 26 26 26 28 30 31 29 29 29 28 28 27 29 31 31 29 29 30 33 33 32 32 32 33 34 36 36 36 36 36 36 37 37 37 36 34
24 24 21 18 17 16 15 14 13 12 12 11 10 9 10 12 11 10 10 11 13 15 16 15 15 16 16 13 13 14 17 17 14 12 13 13 11 10 10 11 13 13 14 17 20 20 20 23 26 28 29 27 25 27 27 27 27 27 26 26 25 26 28 30 29 29 31 32 32 31 31 31 31 31 31 31 30 31 31 32 33 34 34 34 33
24 22 19 18 17 15 15 15 14 12 11 9 9 10 11 12 11 10 10 11 12 14 15 15 16 17 16 15 13 12 14 16 15 13 15 17 15 12 11 11 12 13 12 14 19 20 19 22 25 28 29 27 23 24 26 27 27 27 25 24 23 24 26 28 28 29 31 30 28 28 28 28 29 29 29 28 28 27 27 27 28 29 30 29 28
Wind_Direction
70 64 61 66 71 72 81 90 90 89 92 92 90 102 110 106 106 102 94 94 101 105 103 100 104 95 70 227 217 220 243 256 250 250 256 238 220 210 210 213 212 213 216 221 230 236 238 239 241 243 247 250 249 249 249 250 249 246 244 242 240 240 240 240 240 233 224 225 235 236 229 229 237 235 221 223 227 219 215 216 213 205 201 209 214
66 62 62 62 60 61 65 69 71 70 73 76 76 79 84 86 87 86 85 86 87 85 76 68 56 58 73 63 31 235 236 247 252 256 257 249 236 223 216 212 213 217 220 224 230 235 238 239 239 240 244 249 252 253 251 249 249 250 246 242 241 241 242 241 234 222 212 211 216 230 238 237 240 237 223 222 231 225 218 218 216 209 202 199 202
66 60 59 59 58 58 59 59 60 59 60 62 62 64 67 70 72 72 74 70 62 57 52 57 46 39 55 36 350 296 285 303 304 272 246 245 248 247 242 225 218 223 227 229 232 235 238 238 238 240 243 247 252 255 253 248 247 249 246 241 237 237 240 241 234 224 216 207 199 200 234 236 238 243 235 227 230 228 219 217 216 210 201 194 199
72 63 57 59 58 57 56 55 55 54 54 53 53 55 57 61 64 65 68 64 57 50 39 40 43 38 37 17 336 312 310 316 320 316 294 272 267 265 263 248 236 239 242 240 240 241 243 245 246 247 247 249 252 253 252 250 248 247 246 242 237 232 233 236 233 225 215 203 186 156 178 188 222 229 227 228 228 225 220 217 216 212 204 199 203
77 71 59 58 58 57 56 56 55 52 50 48 47 48 48 53 56 54 56 57 54 50 45 42 42 37 29 16 2 345 326 319 323 329 332 321 306 302 294 277 262 261 260 258 257 256 256 257 255 253 253 251 248 247 248 250 249 247 246 244 240 233 230 230 228 222 216 209 200 178 155 212 232 194 198 222 225 221 220 219 217 214 208 205 208
75 74 67 62 60 58 55 54 54 51 48 48 48 48 47 48 52 51 48 48 49 47 46 47 45 39 30 23 19 9 349 337 339 341 338 328 321 323 319 307 299 293 284 276 270 267 266 262 257 257 259 254 249 249 248 246 246 246 244 243 241 237 232 228 223 221 222 217 212 211 204 180 162 157 163 214 220 220 222 218 218 219 212 208 209
75 73 70 66 60 58 54 50 51 50 48 49 47 48 47 44 48 51 46 43 43 42 42 45 43 39 34 30 29 23 13 6 3 359 353 344 336 329 321 310 303 300 295 287 281 276 274 272 270 271 270 264 258 257 254 249 248 249 247 243 240 238 233 228 223 221 221 219 220 224 224 209 178 166 179 197 204 217 221 217 219 221 214 211 210
82 74 69 67 62 59 55 50 51 50 48 48 44 45 46 42 39 41 42 39 38 39 41 43 44 41 37 35 33 27 21 15 11 9 6 1 356 346 335 329 317 307 302 297 295 289 281 280 281 281 278 275 272 269 264 258 254 256 255 248 243 238 230 227 225 220 215 216 223 226 228 233 229 211 205 213 214 202 214 216 218 220 219 217 215
83 79 75 72 67 63 60 55 53 50 47 43 40 41 43 41 38 36 35 32 32 37 40 41 42 41 39 36 31 27 23 20 17 14 10 7 7 2 353 349 343 331 321 315 310 301 293 290 289 286 281 280 281 278 274 269 263 263 261 255 254 248 234 227 227 225 220 218 221 221 222 230 233 228 222 221 226 218 196 208 210 212 221 222 218
77 78 77 76 74 67 61 57 54 52 49 46 44 43 41 39 41 40 33 29 32 37 39 40 40 40 38 34 29 26 23 21 21 19 14 10 10 8 3 359 354 345 337 331 325 316 309 305 302 300 293 288 288 284 282 282 276 270 267 263 263 255 236 226 226 228 227 224 222 215 213 218 218 224 229 222 227 230 205 198 197 193 208 219 217
76 75 75 78 79 71 62 56 52 53 51 48 47 40 38 42 45 45 39 37 40 38 37 38 37 35 33 30 28 26 22 21 21 17 13 11 7 5 6 5 359 352 347 341 336 332 329 322 315 309 304 301 300 294 290 288 283 280 281 277 273 265 248 233 227 227 229 228 226 218 213 215 208 207 215 208 211 220 199 193 200 197 205 215 217
82 73 68 71 75 69 63 55 47 49 48 43 42 38 40 43 43 44 45 46 48 44 41 38 35 33 33 32 29 27 25 24 21 14 11 9 3 1 5 5 1 359 357 352 344 337 337 336 328 317 312 309 306 302 296 292 291 290 288 282 277 271 260 243 229 225 227 228 228 225 221 221 217 214 213 207 210 212 201 190 193 196 207 218 220
89 83 73 66 69 65 60 52 39 43 50 45 41 39 40 40 38 40 44 45 48 51 49 45 39 35 36 37 34 33 32 28 23 16 10 6 2 2 4 2 359 358 357 356 351 342 339 343 340 332 323 316 307 300 296 294 294 292 289 285 280 273 263 246 231 226 228 229 230 228 225 224 224 222 217 212 214 213 207 205 193 191 196 207 214
90 82 76 71 72 69 61 46 32 39 56 56 48 40 38 41 41 40 41 44 53 61 55 48 44 40 36 34 35 41 38 31 25 17 9 5 5 6 5 1 357 355 353 354 355 350 345 345 344 341 336 328 316 302 294 292 293 293 291 289 284 279 268 247 233 229 232 232 230 227 223 221 222 223 220 218 217 214 214 210 194 193 197 194 201
89 80 79 77 77 76 66 51 37 33 47 63 60 43 31 37 44 43 41 43 51 62 56 49 48 45 41 37 39 43 38 33 30 24 16 12 10 8 4 2 358 355 353 354 354 352 352 351 349 346 343 339 331 317 304 295 295 296 294 290 286 282 269 247 233 230 233 236 235 231 226 223 222 222 221 220 218 218 218 210 195 182 195 204 204
89 84 80 77 82 86 81 73 53 28 42 62 60 37 27 35 47 47 42 40 44 54 54 48 47 46 42 40 41 39 32 31 34 29 24 21 17 12 8 5 3 0 358 357 353 350 351 353 352 350 346 342 337 329 320 309 303 300 297 296 290 277 266 255 244 234 234 238 240 238 233 230 230 228 224 221 219 221 222 217 207 194 185 193 207
94 89 82 79 94 109 111 111 97 55 63 67 50 37 38 42 45 46 43 42 47 55 54 48 46 44 40 38 38 35 31 31 33 29 25 23 20 17 14 11 8 5 2 359 355 352 351 351 351 350 348 344 339 335 331 323 317 309 301 297 291 279 270 264 255 246 241 242 244 243 240 238 237 234 228 226 226 224 221 221 218 211 200 184 176
92 87 93 99 117 128 131 129 115 88 75 62 49 46 47 45 44 46 45 42 46 53 53 48 46 43 39 37 36 35 33 32 31 28 26 24 21 19 16 14 11 8 6 3 360 357 355 353 352 352 351 347 343 341 337 330 325 318 307 300 295 287 278 271 263 254 247 245 244 242 241 241 240 238 233 231 231 228 222 221 222 216 208 201 191
90 89 116 142 139 135 133 118 88 76 67 58 52 49 48 45 45 47 46 43 48 51 49 47 46 43 40 38 37 36 35 33 31 29 28 26 24 21 17 16 13 10 7 4 2 360 358 357 354 353 355 355 350 346 342 336 331 323 313 307 304 296 282 274 268 258 251 247 244 242 240 238 237 237 236 234 232 231 227 222 219 213 210 213 211
104 127 174 170 136 108 95 80 71 73 69 61 55 52 51 48 46 47 44 45 51 50 47 47 46 44 42 40 39 38 35 35 34 30 28 27 26 23 19 18 15 12 9 5 3 1 359 358 355 354 356 357 357 354 348 341 335 328 320 313 310 303 289 281 272 261 256 251 246 245 243 238 236 234 234 235 233 232 230 224 222 222 219 219 218
138 170 192 139 108 89 80 74 70 74 73 66 58 54 55 52 49 48 44 45 50 49 48 49 47 45 44 41 40 37 35 36 35 32 30 29 27 25 22 20 18 15 12 8 5 2 360 359 358 358 357 356 360 1 357 351 345 338 330 318 311 306 297 289 276 262 256 252 247 246 245 241 236 233 233 234 231 230 232 229 226 226 224 221 217
153 164 98 88 94 90 85 78 73 74 75 69 59 53 55 54 52 49 44 44 49 50 50 49 46 44 44 41 39 38 36 36 35 32 32 31 28 26 24 23 20 17 14 12 7 3 1 360 360 0 359 360 3 5 4 3 359 353 345 332 320 310 300 293 281 265 257 255 250 246 244 240 234 230 230 232 231 229 229 227 221 217 219 220 217
142 131 110 95 93 97 98 93 87 82 80 75 64 55 51 49 51 50 45 43 49 52 51 48 45 44 42 40 40 39 37 37 36 34 32 31 28 27 26 24 22 19 16 14 10 6 4 3 3 3 1 4 6 2 359 359 357 354 351 346 339 324 307 297 285 269 259 257 251 245 245 242 235 230 229 231 233 231 225 223 220 216 217 216 213
139 120 101 82 73 78 91 91 82 72 67 68 63 54 48 48 52 51 45 45 50 52 50 46 44 43 40 39 39 37 36 37 37 35 33 31 28 27 27 25 23 20 18 16 12 10 8 6 5 4 2 5 6 359 354 354 353 351 349 347 345 340 325 308 291 276 268 263 253 244 244 245 239 232 229 228 230 230 227 226 226 225 225 217 208
99 84 77 70 60 58 68 73 68 61 57 59 59 53 50 52 56 53 46 47 50 49 48 46 43 42 39 37 38 36 34 34 36 34 33 32 30 28 27 25 24 22 19 16 14 13 11 9 8 5 3 5 6 360 356 355 352 350 348 344 342 340 336 324 302 284 276 272 260 248 243 244 240 234 230 226 225 226 226 227 227 226 229 224 209
88 81 74 71 65 61 66 69 68 64 60 60 58 52 51 56 59 55 49 49 49 48 47 45 43 42 39 38 37 35 34 33 33 33 32 32 30 28 27 26 25 23 20 17 16 15 13 11 9 8 5 5 5 1 359 358 355 351 347 343 339 336 334 331 316 294 283 278 270 257 247 244 241 236 232 227 224 223 223 224 226 225 227 226 216
91 85 77 73 67 62 63 63 63 66 64 59 53 51 54 59 62 59 53 50 49 48 48 47 46 45 41 39 38 36 35 34 34 34 33 32 30 27 27 26 25 24 21 18 17 17 16 13 10 10 9 8 7 2 360 357 355 352 348 343 338 333 331 329 321 307 293 284 275 263 252 245 241 238 235 232 228 226 225 225 225 225 223 222 219
95 88 81 76 69 63 61 56 55 63 64 57 54 56 58 61 65 63 57 52 51 52 53 51 50 49 45 42 39 37 35 35 36 36 34 32 31 28 27 25 24 23 20 19 18 17 17 15 13 11 9 9 8 3 359 356 353 351 348 343 338 331 327 325 320 312 299 287 278 269 259 249 242 238 236 234 230 226 227 227 226 224 220 219 219
100 93 86 80 72 66 62 56 56 63 64 59 58 63 63 63 69 67 59 56 56 56 56 54 52 51 48 43 40 39 38 36 36 35 34 33 32 30 29 27 25 22 19 18 18 18 18 16 16 14 11 10 8 2 358 356 354 351 346 341 336 330 324 320 317 312 302 290 280 273 264 252 246 241 238 237 233 227 226 227 227 223 217 217 218
103 97 95 92 84 78 71 63 60 64 66 62 58 60 63 63 71 72 62 57 57 56 57 56 53 52 49 44 41 40 40 40 39 35 33 32 31 30 30 29 26 23 20 18 18 19 19 17 16 15 13 13 9 2 360 0 358 355 349 343 337 330 323 316 311 308 302 293 284 276 266 256 251 248 243 241 239 233 229 230 230 226 219 215 212
109 104 101 95 89 87 82 69 59 59 67 67 58 56 58 55 59 70 67 60 58 59 58 57 55 52 47 43 40 39 40 43 42 38 35 32 30 30 30 31 29 26 23 20 19 20 20 18 16 15 14 13 8 3 3 4 3 1 356 350 345 338 329 319 308 300 296 294 289 282 271 261 256 254 249 244 241 238 235 232 231 232 228 220 213
109 103 98 93 88 87 82 75 68 63 67 70 63 59 58 53 51 59 64 62 61 61 61 59 56 51 45 41 39 38 39 42 44 42 37 33 30 28 30 33 31 26 24 23 23 22 20 18 17 15 14 12 7 5 6 7 6 6 3 360 358 351 342 333 319 305 297 295 294 289 276 262 255 253 249 244 242 240 238 234 233 236 235 228 221
103 100 100 103 102 100 98 96 88 75 70 71 69 64 61 57 55 58 60 60 60 61 64 63 59 53 46 42 41 39 37 40 45 43 40 36 31 28 28 33 31 26 24 25 25 25 23 20 19 15 13 11 6 6 9 9 8 8 7 8 5 356 350 345 334 318 306 300 297 294 284 269 259 255 251 247 244 241 239 237 234 233 235 233 227
99 103 110 113 116 121 122 106 89 80 75 75 73 69 66 63 63 64 62 59 58 61 65 66 61 56 50 45 43 41 38 39 44 43 40 38 35 31 30 32 32 27 25 25 26 25 24 21 18 14 12 10 7 8 11 11 10 9 9 10 8 3 358 355 349 339 328 315 306 301 291 278 266 256 251 248 244 239 236 236 232 229 231 233 227
112 123 120 114 115 114 100 91 87 83 83 82 78 75 73 68 63 64 64 62 61 59 63 68 64 58 54 48 44 42 40 41 44 41 38 38 37 36 33 31 31 28 25 26 26 23 20 19 16 13 12 11 9 10 13 13 12 10 10 12 12 9 4 1 1 359 355 345 331 320 305 286 272 260 251 245 240 234 231 230 228 225 224 225 222
135 134 124 119 114 97 87 87 88 83 80 85 83 75 73 70 62 56 58 65 63 56 60 70 67 60 57 52 47 44 42 44 46 42 39 36 36 38 36 33 33 30 26 26 26 22 19 19 18 16 15 12 10 11 13 14 13 11 10 12 13 11 5 3 4 3 1 360 353 345 332 305 285 268 253 246 239 233 228 222 217 216 216 217 215
128 121 119 121 113 99 89 81 79 76 73 77 77 70 70 71 63 54 56 66 66 56 58 72 71 63 60 57 51 47 45 47 48 45 42 38 35 36 36 35 35 31 27 26 25 22 20 18 18 17 14 11 10 11 12 13 14 13 11 10 11 11 7 3 4 3 3 4 2 356 348 332 313 287 258 250 243 232 225 217 209 203 203 204 205
130 122 123 125 111 102 92 79 74 73 70 70 69 67 68 67 62 56 54 60 64 56 59 74 73 63 60 57 53 49 47 47 48 46 42 38 36 35 34 35 36 33 29 28 26 22 19 16 14 14 12 9 9 10 11 13 14 14 13 10 9 10 8 4 3 4 4 5 6 4 357 346 332 306 268 255 246 232 221 213 202 192 187 188 192
128 125 130 124 104 96 90 81 77 74 73 73 71 69 67 61 57 57 53 54 57 53 57 71 71 62 59 57 54 50 47 46 48 47 40 36 36 35 32 33 34 32 30 30 26 23 20 17 14 12 11 9 8 8 11 13 14 15 15 12 9 9 7 4 3 4 4 5 6 7 3 355 342 318 281 261 249 233 220 210 200 190 183 180 182
128 135 134 116 102 98 94 89 85 82 80 79 78 77 72 62 53 50 51 56 56 50 52 62 64 61 62 60 54 50 48 46 46 49 43 35 34 35 33 30 30 30 30 29 26 23 21 19 17 14 12 10 8 8 10 12 14 15 15 14 11 9 6 3 2 4 4 3 4 6 6 1 350 331 301 275 255 236 222 209 197 191 189 185 180
147 146 127 109 107 109 107 101 94 87 81 80 81 80 78 73 61 46 45 58 61 52 51 58 62 63 65 64 56 48 47 48 47 49 46 38 34 35 34 31 29 27 27 26 24 23 22 20 18 16 12 10 9 8 10 13 15 15 15 15 12 10 8 5 4 5 6 5 3 4 7 7 1 347 320 291 266 244 229 212 198 196 198 190 176
148 128 114 108 107 108 108 105 98 89 82 81 80 76 77 80 67 44 41 58 63 51 48 54 60 58 56 61 60 48 45 50 50 47 46 39 35 37 38 35 32 29 27 25 23 21 21 20 19 16 13 10 9 10 11 13 15 15 15 15 13 11 10 8 7 7 7 8 6 5 9 14 13 7 355 326 283 250 227 207 196 194 188 174 160
141 122 118 113 102 98 100 102 100 94 89 83 74 70 73 74 64 44 39 53 61 57 53 48 45 45 46 48 57 52 49 52 49 45 45 39 35 38 40 37 35 34 30 27 24 21 21 20 18 15 13 11 10 12 13 13 15 15 15 15 14 12 12 12 11 10 9 10 12 11 15 21 23 24 29 29 8 252 210 192 184 177 163 153 145
140 123 120 114 103 97 95 96 95 91 86 78 71 70 70 69 66 53 40 45 57 68 64 39 25 31 41 44 52 60 54 50 46 44 46 39 33 37 41 39 37 36 34 30 27 23 20 18 16 13 12 12 12 14 15 14 14 14 15 15 14 13 13 12 12 13 15 17 19 18 21 29 33 33 38 43 46 61 127 153 157 153 146 142 138
138 126 124 123 117 112 107 102 99 93 86 81 78 76 73 71 71 61 40 41 57 69 63 32 22 30 39 42 52 67 56 46 45 46 46 40 32 35 40 40 38 38 36 33 30 27 21 16 13 11 10 12 13 14 14 14 13 13 14 14 14 13 14 14 13 14 18 22 25 26 28 34 39 42 44 44 46 56 72 95 122 133 132 130 129
125 121 123 122 120 119 115 109 107 105 101 101 95 84 76 72 72 64 44 38 52 67 62 35 27 31 33 37 49 67 55 42 43 49 49 42 35 34 38 40 39 39 39 34 30 29 25 16 11 9 9 10 12 14 14 13 13 13 12 13 14 14 14 16 17 17 18 22 28 32 34 37 41 46 51 49 46 53 61 66 81 102 109 111 113
125 126 127 125 121 120 113 104 100 95 86 91 94 85 80 78 74 69 54 38 45 63 65 46 33 32 31 35 44 54 49 35 33 42 48 44 36 32 34 39 40 39 39 36 31 28 26 19 11 8 7 8 10 11 10 9 10 11 10 11 14 15 14 17 20 22 23 26 29 33 36 39 42 47 54 56 52 54 58 57 60 73 85 90 96
135 133 130 127 123 119 113 105 102 91 72 75 82 81 85 85 77 73 65 44 39 48 53 48 41 36 33 35 39 41 38 29 23 28 37 38 32 27 30 39 42 39 38 37 33 30 27 22 14 8 5 5 6 8 8 6 6 9 10 10 14 16 16 17 21 25 29 32 34 35 35 38 41 43 46 50 50 51 55 56 57 63 72 79 85
130 128 126 124 120 116 113 109 108 104 90 85 84 81 82 83 77 76 77 62 44 38 39 39 37 34 32 33 34 30 27 27 26 27 28 26 22 22 29 37 39 37 38 39 36 34 31 26 20 13 6 1 0 5 8 8 8 12 13 13 15 18 18 18 22 29 34 36 37 38 37 37 39 39 39 41 44 45 49 54 56 61 66 71 74
120 121 122 123 120 116 115 113 110 108 103 96 89 83 81 81 76 73 80 77 57 39 34 32 27 23 22 27 33 28 22 23 28 33 32 24 14 12 21 28 28 29 37 41 39 38 36 30 23 18 13 6 2 5 10 12 12 14 16 16 16 19 19 18 23 32 38 39 38 38 38 37 38 39 38 38 40 44 47 50 55 60 64 66 68
120 120 120 122 121 118 119 118 114 111 108 97 79 71 75 82 77 70 81 88 68 47 40 34 24 17 13 18 31 37 30 23 23 32 37 32 25 19 17 22 24 22 29 41 41 39 38 31 23 19 19 18 16 15 15 15 12 13 18 20 18 21 22 20 24 34 39 38 36 37 38 39 41 42 41 40 42 45 48 52 58 62 66 69 69